Simultaneous Nadir Overpasses (SNOs) Predictions

Prediction of SNOs between GOES-15 and TERRA Satellite Orbit:

Table of predicted SNOs for the next 14.0 days since TLE Epoch: 5/7/2023
Index Date Time (GOES-15) GOES-15 Lat,Lon TERRA Lat,Lon Distance(km) Time Diff (sec)
1 05/07/2023 07:32:20 0.23,-144.23 0.77,-141.71 286.14 80
2 05/07/2023 19:55:14 -0.23,-144.47 0.20,-146.64 245.82 80
3 05/09/2023 19:36:22 -0.24,-145.39 -0.78,-142.75 299.93 80
4 05/10/2023 07:59:24 0.24,-145.63 -0.23,-147.70 236.45 80
5 05/12/2023 07:40:33 0.25,-146.54 0.84,-143.83 308.47 80
6 05/12/2023 20:03:26 -0.24,-146.77 0.17,-148.74 223.92 80
7 05/14/2023 19:44:33 -0.25,-147.68 -0.82,-144.85 321.22 80
8 05/15/2023 08:07:34 0.24,-147.92 -0.18,-149.81 214.98 80
9 05/17/2023 07:48:41
